sat.trackr.live / text

‹ back to catalog

STARLINK-4358

NORAD 53225 · 2022-084AN

PAYLOAD ACTIVE UNKNOWN

§ Identity

Operator
Country
US
Launch date
2022-07-22
Launch site
AFWTR
Launch vehicle
Mass (kg)
RCS (m²)

Purposes: comms

External: N2YO · Heavens-Above · Gunter

§ Orbital elements

Epoch: 2026-05-25T03:04:50.107008Z

Period
95.64 min
Inclination
97.4489°
Eccentricity
0.0002317
Mean motion
15.05702072 rev/d
Perigee alt
547.7 km
Apogee alt
551.0 km
Semi-major
6,927.5 km
B*
2.5484e-4
RAAN
206.1491°
Arg perigee
125.3076°
Mean anomaly
234.8368°
Rev number
21,088

§ Raw data

STARLINK-43581 53225U 22084AN  26145.12835772  .00003625  00000+0  25484-3 0  99972 53225  97.4489 206.1491 0002317 125.3076 234.8368 15.05702072210882

JSON: /api/v1/satellites/53225 · /tle

For live sub-satellite position, see the globe view (requires WebGL).

§ Visibility from observer

Set your observer location to see the next 7 days of passes ≥ 10°. The values pass through the URL so the page stays shareable.

No JS? Fill the form by hand. The geolocation button needs JavaScript.